Location: Newark
(40.7066°N, 111.8219°W)
Time: 08:25:44
(UTC+00:00)

Tiros 1 despin weight - Visible Passes

Search period start: 15 November 2019 00:00
Search period end: 25 November 2019 00:00
Orbit: 594 x 642 km, 48.2° (Epoch: 14 November)

Date Brightness Start Highest point End Pass type
(mag) Time Alt. Az. Time Alt. Az. Time Alt. Az.
15 Nov ? 02:04:47 10° NW 02:08:54 36° N 02:08:54 36° N visible
16 Nov ? 00:39:30 10° WNW 00:43:30 31° N 00:47:33 10° ENE visible
16 Nov ? 02:21:25 10° NW 02:24:48 40° NNW 02:24:48 40° NNW visible
17 Nov ? 00:56:21 10° WNW 01:00:24 32° N 01:03:41 14° ENE visible
17 Nov ? 02:37:57 10° WNW 02:40:45 37° NW 02:40:45 37° NW visible
18 Nov ? 01:13:02 10° NW 01:17:15 39° NNE 01:19:43 22° ENE visible
18 Nov ? 02:54:33 10° WNW 02:56:47 28° WNW 02:56:47 28° WNW visible
19 Nov ? 01:29:36 10° NW 01:34:01 54° NNE 01:35:50 32° E visible
19 Nov ? 03:11:18 10° WNW 03:12:55 20° W 03:12:55 20° W visible
20 Nov ? 01:46:10 10° WNW 01:50:41 85° NNE 01:52:06 43° ESE visible
20 Nov ? 03:28:29 10° W 03:29:12 13° W 03:29:12 13° W visible
21 Nov ? 02:02:48 10° WNW 02:07:12 55° SW 02:08:34 38° SSE visible
22 Nov ? 00:37:48 10° WNW 00:42:15 65° NNE 00:46:45 10° ESE visible
22 Nov ? 02:19:41 10° WNW 02:23:35 29° SW 02:25:16 23° S visible
23 Nov ? 00:54:23 10° WNW 00:58:51 77° SSW 01:03:22 10° SE visible
23 Nov ? 02:37:16 10° W 02:39:52 15° SW 02:42:18 10° SSW visible
24 Nov ? 01:11:06 10° WNW 01:15:19 42° SW 01:19:35 10° SSE visible
